ONEWEB-0045, 45151

Orbit data source: Space-Track

ONEWEB-0045, 45151 is a payload satellite owned by One Web (UK) in LEO that was launched on Thu, 06 Feb 2020 UTC via a SOYUZ-2-1B launch vehicle from the Tyuratam Missile And Space Complex (TTMTR). Payload-class satellites include a variety of spacecraft equipped with specific instruments for various scientific and technological missions. These include communications satellites like Starlink; space stations such as the ISS; scientific satellites like the Hubble; Earth observation satellites from companies like Planet Labs, Umbra, and HawkEye 360; GPS; miniature CubeSats for education and research; and military/defense satellites.

Loading next visibility...
Identifier
45151, 2020-008W
Orbit
LEO
Country
Flag of UKUK
Related business
Manufacturer
One Web
Mission
Operational Commercial Communications
Bus & Motor
ARROW, Unknown motor
Mass
148 kg wet, ~140 kg dry
Launch date (UTC)
2020-02-06 (6 years ago)
Launch vehicle
SOYUZ-2-1B
Launch site
Tyuratam Missile And Space Complex (TTMTR)
Object type
Payload
Rocket body
Debris
Shape & HBR
Trap Box + 2 Pan, 6.7 m
Radar Cross Section
3.464 m², Large (>1 m²)

Expand to show TLE details & history
Last TLE update: 6 hours ago

TLE from 6 hours ago
0 ONEWEB-0045
1 45151U 20008W   26035.10210185  .00000429  00000-0  11759-2 0  9990
2 45151  87.8827  47.5315 0001769  88.1502 271.9829 13.11416550292963
Epoch: 2026-02-04T02:27Z
TLE epoch observation values (Epoch: 2026-02-04T02:27:01.599Z)
Latitude
0.00001°
Longitude
-123.49867°
Altitude
1,220.527 km
Speed
7.244 km/s
True Right ascension
03h 10m 07s
True Declination
0° 00' 00"
Sunlit
Object was in daylight at epoch
Visualization orbit readout
Latitude
Unknown
Longitude
Unknown
Altitude
Unknown
Speed
Unknown
Apparent Right ascension
Unknown
Apparent Declination
Unknown
Sunlit
N/A
Visualization observer readout
Local Sidereal Time
10:06:23
Azimuth
Unknown
Elevation
Unknown
Doppler factor
Unknown
Orbital elements
Apogee altitude
1,216.146 km
Perigee altitude
1,213.459 km
Semi-major axis
7,592.94 km
Eccentricity
0.00018
Inclination
87.8827°
RAAN
47.5315°
Arg. of periapsis
88.1502°
True anomaly
271.96264°
Mean anomaly
271.9829°
Eccentric anomaly
271.97277°
Mean motion
3.28041 °/min
Orbital period
109.74 mins
BSTAR
0.0011759
Loading maneuver chart data...
Computing Atmospheric mass density...
Loading historical data...
Loading historical data...
Loading historical data...
Loading historical data...
Loading historical data...
Loading historical data...
Loading historical data...

Documentation

Showing up to 5 results
|